PIA895 WMKK-OPIS

Flight info

Callsign PIA895
Flight time 8h 30m
Altitude 36000
Route BIKDU1D BIKDU Y501 RIGTO M769 GOKEX/N0484F380 M769 BKK W21 CMP R474 VTN B218 SAGAG/K0895S1160 A581 BIDRU/K0891S1190 A581 SGM W144 IGNAK W179 IDVEM/K0882S1220 W179 OMBON W195 LAXAL/K0880S1220 W195 VENIV B215 TODOD W112 PURPA/N0477F400 G325 GOTKO J131 BOBAM
Aircraft B772/H-SDE2E3FGHIJ5LORVWXY/LB1D1

Departure

Time 2026-04-26 18:08
Airport Kuala Lumpur International Airport (WMKK)

Arrival

Time 2026-04-27 02:39
Airport Islamabad International Airport (OPIS)
Time Latitude Longitude Altitude Speed Heading
2026-04-26 17:11 2.74768 101.71195 77 ft 0 kts 146°
2026-04-26 17:57 2.74784 101.71182 66 ft 4 kts 132°
2026-04-26 17:57 2.74799 101.71161 66 ft 4 kts 109°
2026-04-26 17:57 2.74804 101.71136 66 ft 4 kts 89°
2026-04-26 17:58 2.74790 101.71086 66 ft 0 kts 56°
2026-04-26 18:00 2.74807 101.71111 66 ft 10 kts 56°
2026-04-26 18:00 2.74862 101.71128 72 ft 9 kts 339°
2026-04-26 18:01 2.74922 101.71092 68 ft 12 kts 326°
2026-04-26 18:01 2.75012 101.71031 66 ft 16 kts 326°
2026-04-26 18:01 2.75050 101.71009 70 ft 0 kts 337°
2026-04-26 18:01 2.75069 101.71006 69 ft 2 kts
2026-04-26 18:02 2.75084 101.71017 68 ft 3 kts 40°
2026-04-26 18:02 2.75099 101.71035 69 ft 9 kts 52°
2026-04-26 18:02 2.75189 101.71164 66 ft 20 kts 56°
2026-04-26 18:02 2.75266 101.71278 68 ft 20 kts 56°
2026-04-26 18:03 2.75342 101.71391 68 ft 20 kts 56°
2026-04-26 18:03 2.75415 101.71499 67 ft 16 kts 56°
2026-04-26 18:03 2.75429 101.71568 66 ft 8 kts 112°
2026-04-26 18:03 2.75388 101.71607 64 ft 8 kts 143°
2026-04-26 18:04 2.75313 101.71658 67 ft 17 kts 146°
2026-04-26 18:04 2.75217 101.71722 66 ft 17 kts 146°
2026-04-26 18:04 2.75121 101.71786 70 ft 17 kts 146°
2026-04-26 18:05 2.74930 101.71914 85 ft 17 kts 146°
2026-04-26 18:05 2.74836 101.71977 86 ft 17 kts 146°
2026-04-26 18:05 2.74740 101.72041 89 ft 17 kts 146°
2026-04-26 18:05 2.74682 101.72096 89 ft 9 kts 107°
2026-04-26 18:06 2.74697 101.72152 88 ft 9 kts 57°
2026-04-26 18:06 2.74731 101.72203 85 ft 9 kts 55°
2026-04-26 18:06 2.74780 101.72230 85 ft 8 kts
2026-04-26 18:06 2.74833 101.72209 87 ft 8 kts 327°
2026-04-26 18:07 2.74835 101.72208 87 ft 0 kts 326°
2026-04-26 18:07 2.74895 101.72168 86 ft 36 kts 326°
2026-04-26 18:07 2.75316 101.71885 85 ft 108 kts 326°
2026-04-26 18:07 2.75822 101.71543 68 ft 151 kts 326°
2026-04-26 18:08 2.77167 101.70635 641 ft 175 kts 326°
2026-04-26 18:08 2.78174 101.69958 1323 ft 181 kts 328°
2026-04-26 18:08 2.79291 101.69221 1612 ft 205 kts 329°
2026-04-26 18:08 2.80624 101.68580 1791 ft 222 kts 345°
2026-04-26 18:09 2.82178 101.68098 1957 ft 247 kts 343°
2026-04-26 18:09 2.83863 101.67515 2378 ft 260 kts 342°
2026-04-26 18:09 2.85590 101.66897 2993 ft 265 kts 342°
2026-04-26 18:09 2.87336 101.66269 3680 ft 267 kts 342°
2026-04-26 18:10 2.89094 101.65634 4351 ft 270 kts 341°
2026-04-26 18:10 2.90903 101.65140 4895 ft 271 kts 360°
2026-04-26 18:10 2.92705 101.65530 5400 ft 271 kts 28°
2026-04-26 18:10 2.94347 101.66465 5907 ft 275 kts 31°
2026-04-26 18:11 2.96005 101.67432 6527 ft 276 kts 32°
2026-04-26 18:11 2.97689 101.68416 7158 ft 277 kts 32°
2026-04-26 18:11 2.99340 101.69383 7714 ft 280 kts 32°
2026-04-26 18:11 3.01027 101.70371 8275 ft 283 kts 32°
2026-04-26 18:12 3.02735 101.71368 8821 ft 285 kts 32°
2026-04-26 18:12 3.04461 101.72373 9360 ft 288 kts 32°
2026-04-26 18:12 3.06200 101.73386 9859 ft 290 kts 32°
2026-04-26 18:12 3.07959 101.74409 10251 ft 297 kts 32°
2026-04-26 18:13 3.09796 101.75479 10389 ft 315 kts 32°
2026-04-26 18:13 3.11741 101.76609 10521 ft 333 kts 32°
2026-04-26 18:13 3.13799 101.77807 10660 ft 352 kts 32°
2026-04-26 18:13 3.15256 101.78654 10816 ft 363 kts 32°
2026-04-26 18:14 3.17852 101.80768 11306 ft 369 kts 55°
2026-04-26 18:14 3.19250 101.82924 11810 ft 373 kts 58°
2026-04-26 18:14 3.20672 101.85106 12581 ft 376 kts 57°
2026-04-26 18:14 3.22156 101.87264 13280 ft 375 kts 52°
2026-04-26 18:15 3.24150 101.88997 13736 ft 388 kts 30°
2026-04-26 18:15 3.26699 101.89909 14287 ft 395 kts 11°
2026-04-26 18:15 3.29461 101.89932 14922 ft 401 kts 352°
2026-04-26 18:15 3.32123 101.89057 15518 ft 408 kts 333°
2026-04-26 18:16 3.34396 101.87350 16021 ft 411 kts 319°
2026-04-26 18:16 3.38665 101.83399 16975 ft 422 kts 318°
2026-04-26 18:16 3.40820 101.81398 17569 ft 424 kts 319°
2026-04-26 18:17 3.42971 101.79418 18126 ft 427 kts 319°
2026-04-26 18:17 3.45170 101.77407 18556 ft 430 kts 319°
2026-04-26 18:17 3.47424 101.75361 18987 ft 433 kts 319°
2026-04-26 18:17 3.49634 101.73358 19433 ft 435 kts 319°
2026-04-26 18:18 3.51886 101.71320 19885 ft 438 kts 319°
2026-04-26 18:18 3.54148 101.69271 20309 ft 440 kts 319°
2026-04-26 18:18 3.56435 101.67204 20743 ft 442 kts 319°
2026-04-26 18:18 3.58724 101.65135 21154 ft 445 kts 319°
2026-04-26 18:19 3.61032 101.63047 21563 ft 448 kts 319°
2026-04-26 18:19 3.63351 101.60950 21970 ft 451 kts 319°
2026-04-26 18:19 3.65683 101.58841 22383 ft 453 kts 319°
2026-04-26 18:19 3.68024 101.56723 22784 ft 455 kts 319°
2026-04-26 18:20 3.70381 101.54592 23191 ft 457 kts 319°
2026-04-26 18:20 3.72750 101.52448 23584 ft 459 kts 319°
2026-04-26 18:20 3.75123 101.50301 23924 ft 461 kts 319°
2026-04-26 18:20 3.75899 101.49598 24037 ft 461 kts 319°
2026-04-26 18:21 3.79900 101.45975 24573 ft 464 kts 319°
2026-04-26 18:21 3.82302 101.43802 24891 ft 466 kts 319°
2026-04-26 18:21 3.84779 101.41699 25193 ft 466 kts 327°
2026-04-26 18:21 3.87625 101.40182 25363 ft 465 kts 337°
2026-04-26 18:22 3.90613 101.38901 25575 ft 470 kts 338°
2026-04-26 18:22 3.93635 101.37644 25874 ft 471 kts 338°
2026-04-26 18:22 3.96661 101.36374 26245 ft 471 kts 338°
2026-04-26 18:22 3.99651 101.35095 26569 ft 473 kts 338°
2026-04-26 18:23 4.02670 101.33778 26862 ft 475 kts 337°
2026-04-26 18:23 4.05701 101.32439 27151 ft 477 kts 337°
2026-04-26 18:23 4.08744 101.31085 27438 ft 480 kts 337°
2026-04-26 18:23 4.11800 101.29722 27772 ft 481 kts 337°
2026-04-26 18:24 4.14860 101.28356 28098 ft 482 kts 337°
2026-04-26 18:24 4.17928 101.26987 28392 ft 484 kts 337°
2026-04-26 18:24 4.21016 101.25611 28667 ft 486 kts 337°
2026-04-26 18:24 4.24119 101.24229 28948 ft 488 kts 337°
2026-04-26 18:25 4.27220 101.22848 29223 ft 490 kts 336°
2026-04-26 18:25 4.30348 101.21455 29501 ft 491 kts 336°
2026-04-26 18:25 4.33441 101.20077 29770 ft 493 kts 336°
2026-04-26 18:25 4.36625 101.18659 30014 ft 494 kts 336°
2026-04-26 18:26 4.39730 101.17276 30250 ft 495 kts 336°
2026-04-26 18:26 4.42879 101.15873 30481 ft 496 kts 336°
2026-04-26 18:26 4.46032 101.14468 30703 ft 497 kts 336°
2026-04-26 18:26 4.49198 101.13057 30890 ft 498 kts 336°
2026-04-26 18:27 4.52367 101.11645 31088 ft 499 kts 336°
2026-04-26 18:27 4.55545 101.10228 31286 ft 500 kts 336°
2026-04-26 18:27 4.58733 101.08811 31532 ft 500 kts 337°
2026-04-26 18:27 4.61912 101.07426 31818 ft 498 kts 337°
2026-04-26 18:28 4.65097 101.06057 32125 ft 497 kts 337°
2026-04-26 18:28 4.68274 101.04698 32444 ft 496 kts 337°
2026-04-26 18:28 4.71437 101.03343 32728 ft 495 kts 337°
2026-04-26 18:28 4.74602 101.01984 33013 ft 494 kts 337°
2026-04-26 18:29 4.77762 101.00624 33294 ft 493 kts 337°
2026-04-26 18:29 4.80908 100.99269 33613 ft 492 kts 337°
2026-04-26 18:29 4.84054 100.97911 33906 ft 491 kts 337°
2026-04-26 18:29 4.86127 100.97016 34076 ft 491 kts 337°
2026-04-26 18:30 4.89267 100.95661 34302 ft 490 kts 337°
2026-04-26 18:30 4.92399 100.94309 34544 ft 490 kts 337°
2026-04-26 18:30 4.96574 100.92507 34875 ft 489 kts 337°
2026-04-26 18:30 4.98649 100.91611 35029 ft 489 kts 337°
2026-04-26 18:31 5.01777 100.90261 35254 ft 488 kts 337°
2026-04-26 18:31 5.04899 100.88913 35504 ft 488 kts 337°
2026-04-26 18:31 5.08014 100.87568 35730 ft 488 kts 337°
2026-04-26 18:31 5.11145 100.86216 35779 ft 491 kts 337°
2026-04-26 18:32 5.17446 100.83495 35850 ft 493 kts 337°
2026-04-26 18:32 5.23728 100.80781 35844 ft 488 kts 337°
2026-04-26 18:33 5.29943 100.78094 35854 ft 486 kts 337°
2026-04-26 18:33 5.36145 100.75414 35853 ft 485 kts 337°
2026-04-26 18:34 5.42420 100.72882 35848 ft 485 kts 340°
2026-04-26 18:34 5.48737 100.70594 35849 ft 486 kts 341°
2026-04-26 18:35 5.55108 100.68285 35843 ft 487 kts 340°
2026-04-26 18:35 5.61478 100.65931 35845 ft 488 kts 340°
2026-04-26 18:36 5.67859 100.63552 35843 ft 489 kts 340°
2026-04-26 18:36 5.74247 100.61167 35844 ft 490 kts 340°
2026-04-26 18:37 5.80643 100.58780 35841 ft 490 kts 340°
2026-04-26 18:37 5.87043 100.56394 35838 ft 491 kts 340°
2026-04-26 18:38 5.93440 100.54008 35839 ft 491 kts 340°
2026-04-26 18:38 5.99844 100.51618 35846 ft 491 kts 340°
2026-04-26 18:39 6.06244 100.49230 35851 ft 490 kts 340°
2026-04-26 18:39 6.12637 100.46843 35856 ft 490 kts 340°
2026-04-26 18:40 6.19030 100.44456 35857 ft 490 kts 340°
2026-04-26 18:40 6.25418 100.42070 35857 ft 490 kts 340°
2026-04-26 18:41 6.31803 100.39685 35855 ft 489 kts 340°
2026-04-26 18:41 6.38188 100.37299 35851 ft 489 kts 340°
2026-04-26 18:42 6.44578 100.34910 35845 ft 489 kts 340°
2026-04-26 18:42 6.50959 100.32524 35839 ft 489 kts 340°
2026-04-26 18:43 6.57348 100.30134 35836 ft 489 kts 340°
2026-04-26 18:43 6.63727 100.27748 35840 ft 489 kts 340°
2026-04-26 18:44 6.70254 100.25858 35837 ft 488 kts 352°
2026-04-26 18:44 6.77019 100.25645 35847 ft 487 kts
2026-04-26 18:45 6.83703 100.26421 35854 ft 487 kts
2026-04-26 18:45 6.90447 100.27241 35854 ft 488 kts
2026-04-26 18:46 6.97198 100.28012 35857 ft 488 kts
2026-04-26 18:46 7.03947 100.28755 35855 ft 488 kts
2026-04-26 18:47 7.10693 100.29495 35851 ft 488 kts
2026-04-26 18:47 7.17451 100.30239 35847 ft 488 kts
2026-04-26 18:48 7.24196 100.30984 35844 ft 488 kts
2026-04-26 18:48 7.30942 100.31728 35842 ft 487 kts
2026-04-26 18:49 7.37683 100.32473 35840 ft 487 kts
2026-04-26 18:49 7.44418 100.33217 35841 ft 487 kts
2026-04-26 18:50 7.51104 100.33949 35839 ft 486 kts
2026-04-26 18:50 7.57862 100.34219 35846 ft 486 kts
2026-04-26 18:51 7.64623 100.34332 35839 ft 486 kts
2026-04-26 18:51 7.71381 100.34456 35845 ft 486 kts
2026-04-26 18:52 7.77003 100.34578 35844 ft 486 kts
2026-04-26 18:52 7.84899 100.34760 35843 ft 485 kts
2026-04-26 18:53 7.91655 100.34916 35843 ft 485 kts
2026-04-26 18:53 7.98407 100.35071 35843 ft 485 kts
2026-04-26 18:54 8.05152 100.35225 35845 ft 485 kts
2026-04-26 18:54 8.11906 100.35380 35843 ft 485 kts
2026-04-26 18:55 8.18652 100.35534 35846 ft 485 kts
2026-04-26 18:55 8.25399 100.35688 35844 ft 485 kts
2026-04-26 18:56 8.32148 100.35843 35845 ft 484 kts
2026-04-26 18:56 8.38838 100.35996 35840 ft 484 kts
2026-04-26 18:57 8.44478 100.36126 35839 ft 484 kts
2026-04-26 18:57 8.52302 100.36305 35840 ft 484 kts
2026-04-26 18:58 8.59027 100.36459 35840 ft 483 kts
2026-04-26 18:58 8.65758 100.36614 35840 ft 483 kts
2026-04-26 18:59 8.72469 100.36768 35837 ft 483 kts
2026-04-26 18:59 8.79190 100.36922 35837 ft 483 kts
2026-04-26 19:00 8.85902 100.37070 35839 ft 482 kts
2026-04-26 19:00 8.92611 100.37215 35839 ft 482 kts
2026-04-26 19:01 8.99323 100.37361 35840 ft 482 kts
2026-04-26 19:01 9.06036 100.37508 35839 ft 482 kts
2026-04-26 19:02 9.12738 100.37655 35840 ft 482 kts
2026-04-26 19:02 9.18313 100.37781 35836 ft 482 kts
2026-04-26 19:03 9.26095 100.37974 35841 ft 481 kts
2026-04-26 19:03 9.32796 100.38141 35836 ft 481 kts
2026-04-26 19:04 9.39494 100.38306 35835 ft 481 kts
2026-04-26 19:04 9.46192 100.38470 35835 ft 481 kts
2026-04-26 19:05 9.56222 100.38709 35834 ft 481 kts
2026-04-26 19:06 9.62927 100.38866 35834 ft 481 kts
2026-04-26 19:06 9.69610 100.39023 35836 ft 481 kts
2026-04-26 19:07 9.76297 100.39181 35835 ft 481 kts
2026-04-26 19:07 9.82985 100.39339 35836 ft 480 kts
2026-04-26 19:08 9.89671 100.39497 35835 ft 480 kts
2026-04-26 19:08 9.96316 100.39645 35832 ft 480 kts
2026-04-26 19:09 10.02996 100.39788 35832 ft 480 kts
2026-04-26 19:09 10.09683 100.39934 35829 ft 480 kts
2026-04-26 19:10 10.16367 100.40084 35829 ft 480 kts
2026-04-26 19:10 10.23052 100.40249 35830 ft 481 kts
2026-04-26 19:11 10.29733 100.40417 35830 ft 481 kts
2026-04-26 19:11 10.36432 100.40583 35829 ft 481 kts
2026-04-26 19:12 10.43126 100.40747 35830 ft 481 kts
2026-04-26 19:12 10.49817 100.40912 35830 ft 481 kts
2026-04-26 19:13 10.56511 100.41076 35831 ft 481 kts
2026-04-26 19:13 10.63201 100.41241 35830 ft 481 kts
2026-04-26 19:14 10.69895 100.41406 35830 ft 481 kts
2026-04-26 19:14 10.76552 100.41570 35834 ft 481 kts
2026-04-26 19:15 10.83253 100.41735 35832 ft 481 kts
2026-04-26 19:15 10.89950 100.41900 35833 ft 482 kts
2026-04-26 19:16 10.96650 100.42066 35833 ft 482 kts
2026-04-26 19:16 11.02270 100.42204 35835 ft 482 kts
2026-04-26 19:17 11.08932 100.42369 35834 ft 482 kts
2026-04-26 19:17 11.15647 100.42535 35833 ft 482 kts
2026-04-26 19:18 11.22365 100.42701 35833 ft 483 kts
2026-04-26 19:18 11.29084 100.42867 35835 ft 483 kts
2026-04-26 19:19 11.35824 100.43030 35973 ft 486 kts
2026-04-26 19:19 11.39200 100.43109 36210 ft 485 kts
2026-04-26 19:19 11.42570 100.43187 36453 ft 484 kts
2026-04-26 19:19 11.45937 100.43266 36679 ft 484 kts
2026-04-26 19:20 11.49304 100.43345 36878 ft 484 kts
2026-04-26 19:20 11.51535 100.43397 37004 ft 484 kts
2026-04-26 19:20 11.56046 100.43503 37258 ft 485 kts
2026-04-26 19:20 11.59422 100.43583 37456 ft 485 kts
2026-04-26 19:21 11.62794 100.43662 37635 ft 485 kts
2026-04-26 19:21 11.66134 100.43741 37750 ft 487 kts
2026-04-26 19:21 11.69531 100.43821 37807 ft 489 kts
2026-04-26 19:22 11.76352 100.43982 37823 ft 491 kts
2026-04-26 19:22 11.83150 100.44142 37824 ft 486 kts
2026-04-26 19:23 11.89882 100.44304 37836 ft 483 kts
2026-04-26 19:23 11.96592 100.44474 37832 ft 481 kts
2026-04-26 19:24 12.03284 100.44643 37831 ft 481 kts
2026-04-26 19:24 12.13335 100.44896 37836 ft 483 kts
2026-04-26 19:25 12.18941 100.45036 37838 ft 485 kts
2026-04-26 19:25 12.26851 100.45235 37835 ft 487 kts
2026-04-26 19:26 12.33638 100.45406 37843 ft 488 kts
2026-04-26 19:26 12.40405 100.45576 37838 ft 489 kts 360°
2026-04-26 19:27 12.47219 100.45748 37839 ft 490 kts 360°
2026-04-26 19:27 12.54027 100.45919 37836 ft 489 kts 360°
2026-04-26 19:28 12.60831 100.46091 37837 ft 489 kts 360°
2026-04-26 19:28 12.67628 100.46262 37840 ft 488 kts 360°
2026-04-26 19:29 12.74416 100.46434 37834 ft 488 kts 360°
2026-04-26 19:29 12.81200 100.46605 37840 ft 487 kts 360°
2026-04-26 19:30 12.87972 100.46776 37837 ft 486 kts 360°
2026-04-26 19:30 12.93595 100.46918 37838 ft 486 kts 360°
2026-04-26 19:31 13.01496 100.47118 37838 ft 486 kts 360°
2026-04-26 19:31 13.08215 100.47305 37840 ft 486 kts
2026-04-26 19:32 13.14932 100.48144 37845 ft 487 kts
2026-04-26 19:32 13.21634 100.49222 37843 ft 487 kts
2026-04-26 19:33 13.28338 100.50282 37841 ft 488 kts
2026-04-26 19:33 13.35060 100.51312 37841 ft 488 kts
2026-04-26 19:34 13.41745 100.52328 37840 ft 488 kts
2026-04-26 19:34 13.48468 100.53350 37845 ft 489 kts
2026-04-26 19:35 13.55203 100.54376 37853 ft 489 kts
2026-04-26 19:35 13.61940 100.55404 37856 ft 490 kts
2026-04-26 19:36 13.67542 100.56259 37849 ft 490 kts
2026-04-26 19:36 13.75429 100.57464 37853 ft 490 kts
2026-04-26 19:37 13.82179 100.58495 37863 ft 490 kts
2026-04-26 19:37 13.88924 100.59519 37859 ft 490 kts
2026-04-26 19:38 13.95704 100.60016 37865 ft 488 kts
2026-04-26 19:38 14.02478 100.60318 37858 ft 488 kts
2026-04-26 19:39 14.09265 100.60633 37858 ft 488 kts
2026-04-26 19:39 14.16047 100.60975 37858 ft 488 kts
2026-04-26 19:40 14.22790 100.61327 37847 ft 488 kts
2026-04-26 19:40 14.29581 100.61682 37854 ft 488 kts
2026-04-26 19:41 14.36366 100.62035 37848 ft 488 kts
2026-04-26 19:41 14.42006 100.62328 37847 ft 488 kts
2026-04-26 19:42 14.49930 100.62740 37845 ft 488 kts
2026-04-26 19:42 14.56714 100.63093 37859 ft 488 kts
2026-04-26 19:43 14.63497 100.63446 37856 ft 488 kts
2026-04-26 19:43 14.70281 100.63799 37853 ft 488 kts
2026-04-26 19:44 14.77060 100.64153 37862 ft 488 kts
2026-04-26 19:44 14.83842 100.64507 37855 ft 488 kts
2026-04-26 19:45 14.90621 100.64860 37859 ft 488 kts
2026-04-26 19:45 14.97414 100.65215 37862 ft 488 kts
2026-04-26 19:46 15.04159 100.65568 37862 ft 488 kts
2026-04-26 19:46 15.10946 100.65923 37873 ft 488 kts
2026-04-26 19:47 15.16583 100.66218 37868 ft 488 kts
2026-04-26 19:47 15.24502 100.66816 37860 ft 490 kts 10°
2026-04-26 19:48 15.27752 100.67909 37868 ft 494 kts 22°
2026-04-26 19:48 15.30755 100.69652 37874 ft 498 kts 33°
2026-04-26 19:48 15.35924 100.74460 37872 ft 501 kts 41°
2026-04-26 19:49 15.40943 100.79473 37871 ft 502 kts 41°
2026-04-26 19:49 15.46016 100.84462 37882 ft 503 kts 41°
2026-04-26 19:50 15.51138 100.89426 37881 ft 504 kts 40°
2026-04-26 19:50 15.56247 100.94358 37871 ft 505 kts 40°
2026-04-26 19:51 15.61393 100.99330 37886 ft 505 kts 40°
2026-04-26 19:51 15.66528 101.04301 37874 ft 505 kts 40°
2026-04-26 19:52 15.71659 101.09274 37894 ft 504 kts 40°
2026-04-26 19:52 15.76784 101.14244 37898 ft 504 kts 40°
2026-04-26 19:53 15.81896 101.19206 37906 ft 503 kts 40°
2026-04-26 19:53 15.87009 101.24170 37891 ft 503 kts 40°
2026-04-26 19:54 15.92078 101.29097 37913 ft 502 kts 40°
2026-04-26 19:54 15.97181 101.34059 37902 ft 502 kts 40°
2026-04-26 19:55 16.02284 101.39025 37915 ft 503 kts 40°
2026-04-26 19:55 16.07395 101.44004 37904 ft 504 kts 40°
2026-04-26 19:56 16.12510 101.48990 37916 ft 504 kts 40°
2026-04-26 19:56 16.17630 101.53983 37919 ft 504 kts 40°
2026-04-26 19:57 16.22752 101.58983 37930 ft 505 kts 40°
2026-04-26 19:57 16.27878 101.63991 37924 ft 506 kts 40°
2026-04-26 19:58 16.33008 101.69006 37931 ft 507 kts 40°
2026-04-26 19:58 16.38127 101.74014 37920 ft 508 kts 40°
2026-04-26 19:59 16.43264 101.79044 37923 ft 508 kts 40°
2026-04-26 19:59 16.48418 101.84095 37918 ft 509 kts 40°
2026-04-26 20:00 16.53584 101.89162 37916 ft 510 kts 40°
2026-04-26 20:00 16.58758 101.94240 37912 ft 511 kts 39°
2026-04-26 20:01 16.64361 101.98691 37914 ft 504 kts 26°
2026-04-26 20:01 16.70616 102.01868 37908 ft 498 kts 16°
2026-04-26 20:02 16.77107 102.04396 37905 ft 498 kts 15°
2026-04-26 20:02 16.81461 102.06073 37899 ft 499 kts 15°
2026-04-26 20:03 16.90118 102.09473 37913 ft 500 kts 16°
2026-04-26 20:03 16.96621 102.12062 37899 ft 500 kts 16°
2026-04-26 20:04 17.03130 102.14660 37895 ft 501 kts 16°
2026-04-26 20:04 17.08545 102.16822 37896 ft 501 kts 16°
2026-04-26 20:05 17.15056 102.19420 37892 ft 501 kts 16°
2026-04-26 20:05 17.21566 102.22020 37891 ft 501 kts 16°
2026-04-26 20:06 17.28072 102.24620 37893 ft 501 kts 16°
2026-04-26 20:06 17.34596 102.27230 37891 ft 501 kts 16°
2026-04-26 20:07 17.41063 102.29819 37892 ft 501 kts 16°
2026-04-26 20:07 17.47573 102.32426 37881 ft 501 kts 16°
2026-04-26 20:08 17.54095 102.35041 37897 ft 502 kts 16°
2026-04-26 20:08 17.60617 102.37657 37887 ft 502 kts 16°
2026-04-26 20:09 17.67160 102.40285 37877 ft 503 kts 16°
2026-04-26 20:09 17.73705 102.42915 37880 ft 504 kts 16°
2026-04-26 20:10 17.80264 102.45553 37877 ft 505 kts 16°
2026-04-26 20:10 17.86829 102.48201 37873 ft 506 kts 16°
2026-04-26 20:11 17.93389 102.50886 37871 ft 506 kts 16°
2026-04-26 20:12 18.03461 102.53244 37869 ft 487 kts 354°
2026-04-26 20:12 18.10090 102.52420 37862 ft 478 kts 343°
2026-04-26 20:13 18.16620 102.51085 37866 ft 478 kts 343°
2026-04-26 20:13 18.23160 102.49768 37865 ft 479 kts 343°
2026-04-26 20:14 18.29677 102.48499 37861 ft 479 kts 343°
2026-04-26 20:14 18.36244 102.47239 37858 ft 479 kts 343°
2026-04-26 20:15 18.42801 102.45982 37868 ft 479 kts 343°
2026-04-26 20:15 18.49353 102.44724 37866 ft 478 kts 343°
2026-04-26 20:16 18.55891 102.43465 37866 ft 478 kts 343°
2026-04-26 20:16 18.62423 102.42206 37869 ft 477 kts 343°
2026-04-26 20:17 18.68944 102.40949 37864 ft 476 kts 343°
2026-04-26 20:17 18.75445 102.39695 37884 ft 475 kts 343°
2026-04-26 20:18 18.81956 102.38435 37886 ft 475 kts 343°
2026-04-26 20:18 18.88458 102.37178 37893 ft 475 kts 342°
2026-04-26 20:19 18.94966 102.35919 37895 ft 475 kts 343°
2026-04-26 20:19 19.01479 102.34658 37907 ft 475 kts 343°
2026-04-26 20:20 19.07984 102.33398 37903 ft 475 kts 342°
2026-04-26 20:20 19.14468 102.32142 37920 ft 473 kts 342°
2026-04-26 20:21 19.20938 102.30885 37911 ft 473 kts 342°
2026-04-26 20:21 19.27397 102.29631 37915 ft 471 kts 342°
2026-04-26 20:22 19.33840 102.28380 37927 ft 470 kts 342°
2026-04-26 20:22 19.40266 102.27128 37913 ft 470 kts 342°
2026-04-26 20:23 19.46653 102.25883 37910 ft 470 kts 342°
2026-04-26 20:23 19.53119 102.24623 37903 ft 470 kts 342°
2026-04-26 20:24 19.59511 102.23377 37901 ft 469 kts 342°
2026-04-26 20:24 19.65919 102.22126 37903 ft 469 kts 342°
2026-04-26 20:25 19.72328 102.20875 37893 ft 466 kts 342°
2026-04-26 20:25 19.78699 102.19630 37892 ft 465 kts 342°
2026-04-26 20:26 19.85054 102.18384 37891 ft 464 kts 341°
2026-04-26 20:26 19.91348 102.16988 37891 ft 458 kts 336°
2026-04-26 20:27 19.97256 102.14670 37886 ft 451 kts 330°
2026-04-26 20:27 20.03072 102.12149 37881 ft 450 kts 330°
2026-04-26 20:28 20.08881 102.09647 37887 ft 451 kts 330°
2026-04-26 20:28 20.14663 102.07176 37886 ft 450 kts 330°
2026-04-26 20:29 20.20479 102.04698 37887 ft 450 kts 330°
2026-04-26 20:29 20.26284 102.02223 37893 ft 449 kts 330°
2026-04-26 20:30 20.32072 101.99753 37896 ft 448 kts 330°
2026-04-26 20:30 20.37854 101.97283 37898 ft 447 kts 330°
2026-04-26 20:31 20.43630 101.94811 37893 ft 447 kts 330°
2026-04-26 20:31 20.49407 101.92339 37896 ft 447 kts 330°
2026-04-26 20:32 20.55181 101.89864 37898 ft 447 kts 330°
2026-04-26 20:32 20.60958 101.87388 37902 ft 447 kts 330°
2026-04-26 20:33 20.66735 101.84909 37886 ft 447 kts 330°
2026-04-26 20:33 20.72473 101.82445 37885 ft 448 kts 330°
2026-04-26 20:34 20.78257 101.79958 37892 ft 448 kts 330°
2026-04-26 20:34 20.84047 101.77468 37892 ft 448 kts 330°
2026-04-26 20:35 20.89844 101.74972 37889 ft 449 kts 330°
2026-04-26 20:35 20.95639 101.72476 37891 ft 449 kts 330°
2026-04-26 20:36 21.01428 101.69979 37892 ft 449 kts 330°
2026-04-26 20:36 21.07220 101.67480 37883 ft 449 kts 330°
2026-04-26 20:37 21.12973 101.64994 37890 ft 449 kts 330°
2026-04-26 20:37 21.18765 101.62489 37893 ft 449 kts 330°
2026-04-26 20:38 21.24558 101.60005 37951 ft 447 kts 330°
2026-04-26 20:38 21.30326 101.57545 37978 ft 446 kts 330°
2026-04-26 20:39 21.36095 101.55078 37985 ft 446 kts 330°
2026-04-26 20:39 21.41864 101.52607 37979 ft 446 kts 330°
2026-04-26 20:40 21.47620 101.50140 37988 ft 445 kts 330°
2026-04-26 20:40 21.53378 101.47667 37985 ft 445 kts 330°
2026-04-26 20:41 21.59128 101.45196 37974 ft 446 kts 330°
2026-04-26 20:41 21.64851 101.42736 37976 ft 446 kts 330°
2026-04-26 20:42 21.70627 101.40250 37973 ft 447 kts 330°
2026-04-26 20:42 21.76402 101.37762 37984 ft 447 kts 330°
2026-04-26 20:43 21.82176 101.35275 37982 ft 447 kts 330°
2026-04-26 20:43 21.87955 101.32782 37983 ft 446 kts 330°
2026-04-26 20:44 21.93710 101.30297 37977 ft 446 kts 330°
2026-04-26 20:44 21.99466 101.27809 37989 ft 445 kts 330°
2026-04-26 20:45 22.05224 101.25318 37968 ft 446 kts 330°
2026-04-26 20:45 22.10967 101.22844 37988 ft 444 kts 330°
2026-04-26 20:46 22.16707 101.20372 37979 ft 444 kts 330°
2026-04-26 20:46 22.22450 101.17893 37986 ft 445 kts 330°
2026-04-26 20:47 22.28209 101.15403 37993 ft 447 kts 331°
2026-04-26 20:47 22.33992 101.12903 37991 ft 449 kts 331°
2026-04-26 20:48 22.39800 101.10390 37985 ft 450 kts 331°
2026-04-26 20:48 22.45629 101.07865 37988 ft 452 kts 332°
2026-04-26 20:49 22.51474 101.05331 37981 ft 453 kts 332°
2026-04-26 20:49 22.57326 101.02792 37986 ft 453 kts 332°
2026-04-26 20:50 22.63159 101.00258 37995 ft 455 kts 332°
2026-04-26 20:50 22.69180 100.98059 37981 ft 466 kts 348°
2026-04-26 20:50 22.72464 100.98089 37999 ft 480 kts
2026-04-26 20:51 22.75749 100.98948 38011 ft 494 kts 16°
2026-04-26 20:51 22.78827 101.00681 38120 ft 501 kts 25°
2026-04-26 20:51 22.81821 101.02646 38305 ft 503 kts 26°
2026-04-26 20:51 22.84787 101.04647 38543 ft 503 kts 27°
2026-04-26 20:52 22.87760 101.06653 38784 ft 501 kts 26°
2026-04-26 20:52 22.90727 101.08630 38896 ft 502 kts 26°
2026-04-26 20:52 22.93720 101.10595 38947 ft 504 kts 26°
2026-04-26 20:53 22.99754 101.14502 38981 ft 505 kts 26°
2026-04-26 20:53 23.04755 101.17726 38980 ft 499 kts 26°
2026-04-26 20:54 23.10701 101.21563 38999 ft 495 kts 26°
2026-04-26 20:54 23.16610 101.25380 39002 ft 493 kts 26°
2026-04-26 20:55 23.23451 101.29808 39009 ft 492 kts 26°
2026-04-26 20:55 23.28337 101.32977 39011 ft 491 kts 26°
2026-04-26 20:56 23.34214 101.36788 39030 ft 492 kts 26°
2026-04-26 20:56 23.40103 101.40612 39025 ft 494 kts 26°
2026-04-26 20:57 23.46009 101.44453 39034 ft 495 kts 27°
2026-04-26 20:57 23.51937 101.48314 39025 ft 497 kts 27°
2026-04-26 20:58 23.57874 101.52181 39039 ft 497 kts 27°
2026-04-26 20:58 23.63813 101.56055 39042 ft 497 kts 27°
2026-04-26 20:59 23.69745 101.59928 39042 ft 497 kts 27°
2026-04-26 20:59 23.75674 101.63804 39036 ft 496 kts 27°
2026-04-26 21:00 23.81591 101.67677 39042 ft 495 kts 27°
2026-04-26 21:00 23.87489 101.71542 39053 ft 493 kts 27°
2026-04-26 21:01 23.93368 101.75398 39042 ft 493 kts 28°
2026-04-26 21:01 23.99242 101.79254 39055 ft 492 kts 28°
2026-04-26 21:02 24.05111 101.83127 39057 ft 492 kts 28°
2026-04-26 21:02 24.10967 101.87004 39054 ft 492 kts 28°
2026-04-26 21:03 24.16814 101.90882 39079 ft 491 kts 28°
2026-04-26 21:03 24.22671 101.94769 39082 ft 492 kts 28°
2026-04-26 21:04 24.28524 101.98655 39086 ft 492 kts 28°
2026-04-26 21:04 24.34380 102.02549 39103 ft 492 kts 28°
2026-04-26 21:05 24.40243 102.06450 39090 ft 492 kts 28°
2026-04-26 21:05 24.46093 102.10347 39100 ft 492 kts 28°
2026-04-26 21:06 24.51932 102.14242 39119 ft 491 kts 28°
2026-04-26 21:06 24.57760 102.18134 39125 ft 490 kts 29°
2026-04-26 21:07 24.63543 102.22001 39128 ft 489 kts 29°
2026-04-26 21:07 24.69368 102.25898 39136 ft 489 kts 29°
2026-04-26 21:08 24.75187 102.29795 39142 ft 490 kts 29°
2026-04-26 21:08 24.81012 102.33703 39147 ft 490 kts 29°
2026-04-26 21:09 24.86841 102.37617 39150 ft 490 kts 29°
2026-04-26 21:09 24.92670 102.41535 39142 ft 491 kts 29°
2026-04-26 21:10 24.98500 102.45459 39159 ft 491 kts 29°
2026-04-26 21:10 25.04290 102.49361 39164 ft 491 kts 29°
2026-04-26 21:11 25.10189 102.53154 39163 ft 489 kts 24°
2026-04-26 21:11 25.16301 102.56454 39169 ft 489 kts 23°
2026-04-26 21:12 25.22438 102.59699 39177 ft 489 kts 23°
2026-04-26 21:12 25.28569 102.62977 39161 ft 490 kts 23°
2026-04-26 21:13 25.34689 102.66281 39159 ft 490 kts 23°
2026-04-26 21:13 25.40818 102.69602 39157 ft 490 kts 23°
2026-04-26 21:14 25.46939 102.72920 39154 ft 490 kts 23°
2026-04-26 21:14 25.53067 102.76244 39153 ft 490 kts 23°
2026-04-26 21:15 25.59195 102.79572 39146 ft 490 kts 23°
2026-04-26 21:15 25.65322 102.82904 39151 ft 490 kts 23°
2026-04-26 21:16 25.71417 102.86221 39143 ft 491 kts 22°
2026-04-26 21:16 25.77546 102.89562 39130 ft 490 kts 22°
2026-04-26 21:17 25.83662 102.92898 39132 ft 490 kts 22°
2026-04-26 21:17 25.89775 102.96237 39124 ft 489 kts 22°
2026-04-26 21:18 25.95883 102.99577 39128 ft 488 kts 22°
2026-04-26 21:18 26.01977 103.02912 39114 ft 489 kts 22°
2026-04-26 21:19 26.08078 103.06256 39102 ft 489 kts 22°
2026-04-26 21:19 26.14207 103.09620 39082 ft 492 kts 22°
2026-04-26 21:20 26.20341 103.12990 39087 ft 491 kts 22°
2026-04-26 21:20 26.26467 103.16360 39077 ft 491 kts 22°
2026-04-26 21:21 26.32585 103.19728 39070 ft 490 kts 22°
2026-04-26 21:21 26.38699 103.23101 39072 ft 490 kts 22°
2026-04-26 21:22 26.44773 103.26455 39063 ft 490 kts 22°
2026-04-26 21:22 26.50872 103.29825 39069 ft 489 kts 22°
2026-04-26 21:23 26.60026 103.34917 39069 ft 490 kts 23°
2026-04-26 21:23 26.66152 103.38336 39052 ft 492 kts 23°
2026-04-26 21:24 26.72278 103.41758 39058 ft 494 kts 23°
2026-04-26 21:24 26.78437 103.45201 39063 ft 495 kts 23°
2026-04-26 21:25 26.84608 103.48656 39051 ft 496 kts 23°
2026-04-26 21:25 26.90737 103.52091 39060 ft 496 kts 23°
2026-04-26 21:26 26.96957 103.55581 39044 ft 496 kts 23°
2026-04-26 21:26 27.03092 103.59028 39047 ft 496 kts 23°
2026-04-26 21:27 27.09256 103.62496 39040 ft 495 kts 23°
2026-04-26 21:27 27.15413 103.65964 39047 ft 495 kts 23°
2026-04-26 21:28 27.21567 103.69434 39036 ft 495 kts 23°
2026-04-26 21:28 27.27713 103.72905 39041 ft 494 kts 23°
2026-04-26 21:29 27.33863 103.76365 39032 ft 493 kts 22°
2026-04-26 21:29 27.40099 103.79569 39038 ft 492 kts 20°
2026-04-26 21:30 27.46338 103.82764 39034 ft 493 kts 21°
2026-04-26 21:30 27.51547 103.85483 39022 ft 493 kts 21°
2026-04-26 21:31 27.58772 103.89267 39028 ft 493 kts 21°
2026-04-26 21:31 27.65003 103.92530 39020 ft 493 kts 21°
2026-04-26 21:32 27.71226 103.95790 39000 ft 493 kts 22°
2026-04-26 21:32 27.77397 103.99031 39007 ft 492 kts 22°
2026-04-26 21:33 27.83602 104.02300 38997 ft 492 kts 22°
2026-04-26 21:33 27.89805 104.05574 38994 ft 492 kts 22°
2026-04-26 21:34 27.96013 104.08854 38980 ft 492 kts 22°
2026-04-26 21:34 28.02213 104.12133 38987 ft 493 kts 22°
2026-04-26 21:35 28.08430 104.15428 38989 ft 493 kts 22°
2026-04-26 21:35 28.14650 104.18728 38972 ft 492 kts 22°
2026-04-26 21:36 28.19803 104.21464 38960 ft 493 kts 22°
2026-04-26 21:36 28.27069 104.25328 38975 ft 494 kts 22°
2026-04-26 21:37 28.33302 104.28632 38973 ft 494 kts 20°
2026-04-26 21:37 28.39888 104.30650 38971 ft 488 kts
2026-04-26 21:38 28.46608 104.30778 38974 ft 483 kts 353°
2026-04-26 21:38 28.53277 104.30289 38975 ft 484 kts 353°
2026-04-26 21:39 28.60011 104.29862 38969 ft 485 kts 354°
2026-04-26 21:39 28.65650 104.29552 38973 ft 485 kts 354°
2026-04-26 21:40 28.72395 104.29181 38968 ft 485 kts 354°
2026-04-26 21:40 28.80228 104.28758 38975 ft 485 kts 354°
2026-04-26 21:41 28.85829 104.28455 38966 ft 485 kts 354°
2026-04-26 21:41 28.92565 104.28089 38973 ft 484 kts 354°
2026-04-26 21:42 28.99287 104.27724 38970 ft 484 kts 354°
2026-04-26 21:42 29.06015 104.27357 38976 ft 483 kts 354°
2026-04-26 21:43 29.12734 104.26991 38974 ft 483 kts 354°
2026-04-26 21:43 29.19440 104.26625 38977 ft 482 kts 354°
2026-04-26 21:44 29.26148 104.26313 38975 ft 483 kts 358°
2026-04-26 21:44 29.32850 104.27020 38977 ft 485 kts
2026-04-26 21:45 29.39519 104.28216 38982 ft 485 kts
2026-04-26 21:45 29.46184 104.29407 38982 ft 484 kts
2026-04-26 21:46 29.52851 104.30556 38987 ft 484 kts
2026-04-26 21:46 29.59515 104.31688 38986 ft 484 kts
2026-04-26 21:47 29.66134 104.32813 38988 ft 484 kts
2026-04-26 21:47 29.72793 104.33949 38993 ft 484 kts
2026-04-26 21:48 29.79454 104.35087 38989 ft 484 kts
2026-04-26 21:48 29.86106 104.36225 38994 ft 484 kts
2026-04-26 21:49 29.92774 104.37368 38998 ft 484 kts
2026-04-26 21:49 29.99433 104.38511 39001 ft 484 kts
2026-04-26 21:50 30.06113 104.39659 38990 ft 485 kts
2026-04-26 21:50 30.12786 104.40807 38992 ft 485 kts
2026-04-26 21:51 30.19469 104.41966 38987 ft 485 kts
2026-04-26 21:51 30.26143 104.43134 38989 ft 485 kts
2026-04-26 21:52 30.32814 104.44303 38989 ft 485 kts
2026-04-26 21:52 30.39435 104.45463 38986 ft 483 kts
2026-04-26 21:53 30.46074 104.46628 38990 ft 481 kts
2026-04-26 21:53 30.52689 104.47790 38995 ft 479 kts
2026-04-26 21:54 30.59276 104.48533 39003 ft 472 kts 354°
2026-04-26 21:54 30.65696 104.47413 39004 ft 462 kts 339°
2026-04-26 21:55 30.71771 104.45024 39010 ft 460 kts 337°
2026-04-26 21:55 30.77833 104.42608 39005 ft 461 kts 338°
2026-04-26 21:56 30.83898 104.40298 38997 ft 462 kts 341°
2026-04-26 21:56 30.90242 104.38907 39008 ft 467 kts 351°
2026-04-26 21:57 30.96774 104.38646 39005 ft 470 kts 355°
2026-04-26 21:57 31.03324 104.38549 39003 ft 471 kts 355°
2026-04-26 21:58 31.09890 104.38404 39001 ft 472 kts 354°
2026-04-26 21:58 31.16454 104.38228 39004 ft 472 kts 354°
2026-04-26 21:59 31.23018 104.38052 39006 ft 472 kts 354°
2026-04-26 21:59 31.29573 104.37798 39000 ft 470 kts 353°
2026-04-26 22:00 31.36105 104.37394 39005 ft 469 kts 352°
2026-04-26 22:00 31.42555 104.36993 39009 ft 467 kts 353°
2026-04-26 22:01 31.49030 104.36611 39012 ft 465 kts 353°
2026-04-26 22:01 31.55486 104.36238 39017 ft 463 kts 353°
2026-04-26 22:02 31.61912 104.35867 39023 ft 462 kts 353°
2026-04-26 22:02 31.68321 104.35495 39028 ft 460 kts 353°
2026-04-26 22:03 31.74710 104.35124 39029 ft 458 kts 353°
2026-04-26 22:03 31.81076 104.34769 39043 ft 458 kts 353°
2026-04-26 22:04 31.87449 104.34448 39062 ft 459 kts 353°
2026-04-26 22:04 31.93843 104.34122 39054 ft 461 kts 353°
2026-04-26 22:05 32.00251 104.33799 39074 ft 462 kts 353°
2026-04-26 22:05 32.06677 104.33469 39087 ft 464 kts 352°
2026-04-26 22:06 32.13110 104.33131 39024 ft 466 kts 353°
2026-04-26 22:06 32.19554 104.32812 39070 ft 461 kts 352°
2026-04-26 22:07 32.25938 104.32483 39093 ft 457 kts 352°
2026-04-26 22:07 32.32267 104.32155 39077 ft 455 kts 352°
2026-04-26 22:08 32.38579 104.31825 39100 ft 452 kts 352°
2026-04-26 22:08 32.44879 104.31504 39095 ft 452 kts 352°
2026-04-26 22:09 32.51131 104.31189 39095 ft 454 kts 352°
2026-04-26 22:09 32.57412 104.30876 39149 ft 453 kts 352°
2026-04-26 22:10 32.63774 104.30560 39112 ft 462 kts 352°
2026-04-26 22:10 32.70233 104.30252 39132 ft 467 kts 352°
2026-04-26 22:11 32.76685 104.29950 39131 ft 459 kts 352°
2026-04-26 22:11 32.83033 104.29655 39169 ft 454 kts 352°
2026-04-26 22:12 32.89335 104.29340 39199 ft 452 kts 352°
2026-04-26 22:12 32.95657 104.29034 39316 ft 457 kts 352°
2026-04-26 22:13 32.98838 104.28875 39431 ft 459 kts 352°
2026-04-26 22:13 33.02036 104.28722 39516 ft 460 kts 352°
2026-04-26 22:13 33.05232 104.28571 39647 ft 460 kts 352°
2026-04-26 22:13 33.08426 104.28423 39762 ft 460 kts 352°
2026-04-26 22:14 33.11623 104.28275 39883 ft 459 kts 352°
2026-04-26 22:14 33.14814 104.28119 39953 ft 458 kts 352°
2026-04-26 22:14 33.17998 104.27961 40072 ft 459 kts 352°
2026-04-26 22:14 33.21205 104.27799 40140 ft 461 kts 352°
2026-04-26 22:15 33.27662 104.27487 40172 ft 465 kts 352°
2026-04-26 22:15 33.34066 104.26737 40171 ft 458 kts 341°
2026-04-26 22:16 33.40023 104.24258 40153 ft 449 kts 328°
2026-04-26 22:16 33.45361 104.20602 40196 ft 444 kts 325°
2026-04-26 22:17 33.50702 104.16871 40207 ft 443 kts 326°
2026-04-26 22:17 33.56122 104.13340 40195 ft 447 kts 333°
2026-04-26 22:18 33.62163 104.11358 40213 ft 455 kts 346°
2026-04-26 22:18 33.68554 104.11007 40209 ft 461 kts 354°
2026-04-26 22:19 33.74977 104.11099 40217 ft 461 kts 354°
2026-04-26 22:19 33.81371 104.11176 40221 ft 460 kts 354°
2026-04-26 22:20 33.86694 104.11201 40223 ft 458 kts 354°
2026-04-26 22:20 33.94085 104.11204 40239 ft 457 kts 354°
2026-04-26 22:21 34.00439 104.11198 40219 ft 457 kts 354°
2026-04-26 22:21 34.06789 104.11200 40229 ft 456 kts 354°
2026-04-26 22:22 34.13132 104.11201 40243 ft 455 kts 353°
2026-04-26 22:22 34.19467 104.11199 40250 ft 456 kts 353°
2026-04-26 22:23 34.25817 104.11196 40252 ft 457 kts 353°
2026-04-26 22:23 34.32181 104.11196 40257 ft 457 kts 353°
2026-04-26 22:24 34.38556 104.11196 40259 ft 458 kts 353°
2026-04-26 22:24 34.44928 104.11197 40252 ft 458 kts 353°
2026-04-26 22:25 34.51296 104.11200 40265 ft 457 kts 353°
2026-04-26 22:25 34.57665 104.11199 40269 ft 457 kts 353°
2026-04-26 22:26 34.64017 104.11197 40266 ft 457 kts 353°
2026-04-26 22:26 34.70362 104.11199 40283 ft 456 kts 353°
2026-04-26 22:27 34.75632 104.11200 40268 ft 455 kts 353°
2026-04-26 22:27 34.82992 104.11200 40275 ft 454 kts 353°
2026-04-26 22:28 34.89312 104.11201 40281 ft 454 kts 353°
2026-04-26 22:28 34.95626 104.11201 40280 ft 453 kts 353°
2026-04-26 22:29 35.00867 104.11202 40278 ft 453 kts 353°
2026-04-26 22:29 35.07184 104.11198 40268 ft 454 kts 353°
2026-04-26 22:30 35.13506 104.11198 40283 ft 455 kts 353°
2026-04-26 22:30 35.19851 104.11199 40280 ft 456 kts 353°
2026-04-26 22:31 35.26206 104.11198 40278 ft 457 kts 353°
2026-04-26 22:31 35.32581 104.11198 40283 ft 459 kts 353°
2026-04-26 22:32 35.38974 104.11199 40283 ft 459 kts 352°
2026-04-26 22:32 35.45374 104.11200 40290 ft 461 kts 352°
2026-04-26 22:33 35.55067 104.11206 40301 ft 468 kts 352°
2026-04-26 22:34 35.61599 104.11230 40301 ft 470 kts 352°
2026-04-26 22:34 35.68142 104.11255 40297 ft 470 kts 352°
2026-04-26 22:35 35.74688 104.11276 40301 ft 469 kts 351°
2026-04-26 22:35 35.81197 104.11296 40295 ft 467 kts 351°
2026-04-26 22:36 35.87578 104.10884 40304 ft 458 kts 346°
2026-04-26 22:36 35.93900 104.10152 40301 ft 455 kts 346°
2026-04-26 22:37 36.00202 104.09429 40302 ft 454 kts 346°
2026-04-26 22:37 36.06495 104.08740 40310 ft 453 kts 346°
2026-04-26 22:38 36.12784 104.08057 40311 ft 453 kts 346°
2026-04-26 22:38 36.19064 104.07372 40305 ft 453 kts 346°
2026-04-26 22:39 36.25345 104.06687 40301 ft 453 kts 346°
2026-04-26 22:39 36.31624 104.05996 40308 ft 453 kts 346°
2026-04-26 22:40 36.37901 104.05306 40310 ft 453 kts 345°
2026-04-26 22:40 36.44190 104.04618 40303 ft 453 kts 345°
2026-04-26 22:41 36.50429 104.03932 40311 ft 453 kts 345°
2026-04-26 22:41 36.56699 104.03241 40311 ft 452 kts 345°
2026-04-26 22:42 36.62944 104.02420 40313 ft 445 kts 340°
2026-04-26 22:42 36.68993 104.00886 40307 ft 443 kts 339°
2026-04-26 22:43 36.75018 103.99322 40310 ft 443 kts 339°
2026-04-26 22:43 36.81073 103.97802 40315 ft 443 kts 339°
2026-04-26 22:44 36.87125 103.96290 40312 ft 444 kts 339°
2026-04-26 22:44 36.93182 103.94771 40317 ft 444 kts 339°
2026-04-26 22:45 36.99239 103.93247 40317 ft 445 kts 339°
2026-04-26 22:45 37.05314 103.91718 40311 ft 445 kts 339°
2026-04-26 22:45 37.08237 103.90709 40304 ft 427 kts 326°
2026-04-26 22:46 37.10693 103.88786 40312 ft 410 kts 311°
2026-04-26 22:46 37.14187 103.83323 40324 ft 401 kts 296°
2026-04-26 22:46 37.15319 103.80146 40301 ft 397 kts 282°
2026-04-26 22:47 37.15895 103.76760 40323 ft 398 kts 280°
2026-04-26 22:47 37.16896 103.69883 40330 ft 404 kts 279°
2026-04-26 22:48 37.17912 103.62959 40315 ft 409 kts 279°
2026-04-26 22:48 37.18973 103.55984 40320 ft 403 kts 280°
2026-04-26 22:49 37.20029 103.49152 40317 ft 397 kts 280°
2026-04-26 22:49 37.21078 103.42357 40338 ft 396 kts 280°
2026-04-26 22:50 37.22121 103.35590 40341 ft 395 kts 280°
2026-04-26 22:50 37.23158 103.28819 40348 ft 396 kts 279°
2026-04-26 22:51 37.24194 103.22015 40345 ft 398 kts 279°
2026-04-26 22:51 37.25237 103.15159 40338 ft 401 kts 279°
2026-04-26 22:52 37.26281 103.08259 40341 ft 404 kts 279°
2026-04-26 22:52 37.27328 103.01315 40328 ft 406 kts 279°
2026-04-26 22:53 37.28371 102.94365 40338 ft 403 kts 279°
2026-04-26 22:53 37.29393 102.87531 40326 ft 399 kts 279°
2026-04-26 22:54 37.30410 102.80701 40325 ft 396 kts 279°
2026-04-26 22:54 37.31416 102.73903 40351 ft 396 kts 279°
2026-04-26 22:55 37.32423 102.67091 40334 ft 397 kts 279°
2026-04-26 22:55 37.33426 102.60266 40329 ft 398 kts 279°
2026-04-26 22:56 37.34427 102.53427 40355 ft 399 kts 279°
2026-04-26 22:56 37.35430 102.46547 40355 ft 401 kts 279°
2026-04-26 22:57 37.36611 102.39763 40342 ft 401 kts 282°
2026-04-26 22:57 37.37982 102.32949 40359 ft 403 kts 282°
2026-04-26 22:58 37.39352 102.26109 40365 ft 404 kts 282°
2026-04-26 22:58 37.40709 102.19251 40342 ft 405 kts 282°
2026-04-26 22:59 37.42061 102.12379 40372 ft 404 kts 282°
2026-04-26 22:59 37.43408 102.05506 40331 ft 404 kts 282°
2026-04-26 23:00 37.44739 101.98675 40372 ft 402 kts 282°
2026-04-26 23:00 37.46059 101.91807 40355 ft 404 kts 282°
2026-04-26 23:01 37.47383 101.84918 40349 ft 405 kts 282°
2026-04-26 23:01 37.48703 101.78037 40382 ft 403 kts 281°
2026-04-26 23:02 37.50094 101.71189 40333 ft 404 kts 285°
2026-04-26 23:02 37.52168 101.64639 40359 ft 408 kts 292°
2026-04-26 23:03 37.54835 101.58315 40344 ft 409 kts 295°
2026-04-26 23:03 37.57549 101.52029 40364 ft 408 kts 294°
2026-04-26 23:04 37.60247 101.45712 40346 ft 409 kts 294°
2026-04-26 23:04 37.62940 101.39368 40347 ft 410 kts 294°
2026-04-26 23:05 37.65625 101.33027 40344 ft 410 kts 294°
2026-04-26 23:05 37.68304 101.26685 40345 ft 409 kts 294°
2026-04-26 23:06 37.70980 101.20336 40331 ft 409 kts 294°
2026-04-26 23:06 37.73631 101.14036 40321 ft 408 kts 294°
2026-04-26 23:07 37.76288 101.07707 40327 ft 408 kts 294°
2026-04-26 23:07 37.78942 101.01376 40324 ft 406 kts 293°
2026-04-26 23:08 37.81578 100.95071 40326 ft 406 kts 293°
2026-04-26 23:08 37.84251 100.88768 40329 ft 407 kts 294°
2026-04-26 23:09 37.87048 100.82526 40336 ft 408 kts 295°
2026-04-26 23:09 37.89859 100.76283 40337 ft 409 kts 295°
2026-04-26 23:10 37.92668 100.70003 40330 ft 410 kts 295°
2026-04-26 23:10 37.95470 100.63707 40329 ft 410 kts 295°
2026-04-26 23:11 37.98263 100.57407 40338 ft 410 kts 294°
2026-04-26 23:11 38.01032 100.51146 40335 ft 410 kts 294°
2026-04-26 23:12 38.03823 100.44827 40331 ft 410 kts 294°
2026-04-26 23:12 38.06602 100.38520 40327 ft 409 kts 294°
2026-04-26 23:13 38.09374 100.32218 40328 ft 408 kts 294°
2026-04-26 23:13 38.12136 100.25926 40325 ft 407 kts 294°
2026-04-26 23:14 38.14885 100.19649 40337 ft 407 kts 294°
2026-04-26 23:14 38.17622 100.13383 40329 ft 410 kts 294°
2026-04-26 23:15 38.20391 100.07036 40336 ft 411 kts 294°
2026-04-26 23:15 38.23160 100.00682 40320 ft 411 kts 294°
2026-04-26 23:16 38.25929 99.94313 40328 ft 411 kts 294°
2026-04-26 23:16 38.28225 99.89018 40324 ft 411 kts 294°
2026-04-26 23:17 38.30983 99.82651 40322 ft 411 kts 294°
2026-04-26 23:17 38.33738 99.76274 40319 ft 410 kts 294°
2026-04-26 23:18 38.36481 99.69914 40322 ft 410 kts 294°
2026-04-26 23:18 38.39220 99.63555 40314 ft 408 kts 294°
2026-04-26 23:19 38.41946 99.57207 40326 ft 408 kts 293°
2026-04-26 23:19 38.44666 99.50861 40334 ft 408 kts 293°
2026-04-26 23:20 38.47392 99.44482 40332 ft 410 kts 293°
2026-04-26 23:20 38.50123 99.38088 40330 ft 410 kts 293°
2026-04-26 23:21 38.52849 99.31696 40330 ft 409 kts 293°
2026-04-26 23:21 38.55558 99.25324 40310 ft 408 kts 292°
2026-04-26 23:22 38.58263 99.18944 40339 ft 409 kts 293°
2026-04-26 23:22 38.60977 99.12535 40331 ft 410 kts 293°
2026-04-26 23:23 38.63676 99.06153 40337 ft 411 kts 293°
2026-04-26 23:23 38.66394 98.99713 40341 ft 412 kts 293°
2026-04-26 23:24 38.69114 98.93246 40346 ft 413 kts 293°
2026-04-26 23:24 38.71839 98.86755 40339 ft 414 kts 293°
2026-04-26 23:25 38.74566 98.80249 40353 ft 415 kts 293°
2026-04-26 23:25 38.77295 98.73726 40342 ft 415 kts 293°
2026-04-26 23:26 38.80021 98.67196 40351 ft 416 kts 293°
2026-04-26 23:26 38.82749 98.60646 40355 ft 416 kts 293°
2026-04-26 23:27 38.85471 98.54093 40351 ft 417 kts 293°
2026-04-26 23:27 38.88197 98.47524 40342 ft 417 kts 293°
2026-04-26 23:28 38.90914 98.40958 40347 ft 417 kts 293°
2026-04-26 23:28 38.93614 98.34422 40341 ft 417 kts 293°
2026-04-26 23:29 38.96334 98.27823 40333 ft 417 kts 293°
2026-04-26 23:29 38.99045 98.21230 40334 ft 417 kts 293°
2026-04-26 23:30 39.01754 98.14628 40336 ft 418 kts 293°
2026-04-26 23:30 39.04465 98.08007 40334 ft 419 kts 293°
2026-04-26 23:31 39.07178 98.01367 40331 ft 420 kts 293°
2026-04-26 23:31 39.09895 97.94702 40290 ft 421 kts 293°
2026-04-26 23:32 39.12599 97.88064 40314 ft 419 kts 294°
2026-04-26 23:32 39.15300 97.81407 40335 ft 420 kts 293°
2026-04-26 23:33 39.18018 97.74691 40321 ft 424 kts 293°
2026-04-26 23:33 39.20752 97.67929 40324 ft 426 kts 294°
2026-04-26 23:34 39.23494 97.61135 40327 ft 428 kts 294°
2026-04-26 23:34 39.26230 97.54371 40345 ft 428 kts 294°
2026-04-26 23:35 39.28991 97.47538 40348 ft 429 kts 294°
2026-04-26 23:35 39.31747 97.40700 40340 ft 429 kts 294°
2026-04-26 23:36 39.34500 97.33850 40356 ft 430 kts 294°
2026-04-26 23:36 39.37251 97.26987 40341 ft 430 kts 294°
2026-04-26 23:37 39.40002 97.20110 40344 ft 431 kts 294°
2026-04-26 23:37 39.42750 97.13227 40346 ft 430 kts 294°
2026-04-26 23:38 39.45494 97.06339 40348 ft 430 kts 294°
2026-04-26 23:38 39.48236 96.99468 40343 ft 429 kts 294°
2026-04-26 23:39 39.50979 96.92652 40345 ft 429 kts 294°
2026-04-26 23:39 39.53738 96.85777 40345 ft 430 kts 294°
2026-04-26 23:40 39.56493 96.78888 40355 ft 431 kts 294°
2026-04-26 23:40 39.59252 96.71975 40347 ft 432 kts 294°
2026-04-26 23:41 39.61674 96.64890 40346 ft 427 kts 282°
2026-04-26 23:41 39.62390 96.57259 40350 ft 427 kts 269°
2026-04-26 23:42 39.61597 96.49609 40350 ft 430 kts 261°
2026-04-26 23:42 39.60015 96.38135 40362 ft 432 kts 261°
2026-04-26 23:43 39.59013 96.30485 40361 ft 433 kts 261°
2026-04-26 23:43 39.58013 96.22767 40359 ft 435 kts 262°
2026-04-26 23:44 39.57007 96.15029 40343 ft 435 kts 261°
2026-04-26 23:44 39.56019 96.07308 40355 ft 433 kts 262°
2026-04-26 23:45 39.55166 95.99594 40360 ft 432 kts 263°
2026-04-26 23:45 39.54340 95.91887 40354 ft 431 kts 263°
2026-04-26 23:46 39.53497 95.84194 40359 ft 430 kts 263°
2026-04-26 23:46 39.52643 95.76540 40371 ft 430 kts 262°
2026-04-26 23:47 39.51784 95.68924 40375 ft 430 kts 262°
2026-04-26 23:47 39.50915 95.61263 40383 ft 430 kts 262°
2026-04-26 23:48 39.50040 95.53591 40370 ft 432 kts 262°
2026-04-26 23:48 39.49156 95.45892 40383 ft 432 kts 262°
2026-04-26 23:49 39.48268 95.38197 40383 ft 433 kts 262°
2026-04-26 23:49 39.47372 95.30491 40381 ft 433 kts 262°
2026-04-26 23:50 39.46472 95.22788 40380 ft 433 kts 262°
2026-04-26 23:50 39.45566 95.15077 40379 ft 433 kts 262°
2026-04-26 23:51 39.44654 95.07362 40379 ft 433 kts 262°
2026-04-26 23:51 39.43742 94.99698 40381 ft 434 kts 262°
2026-04-26 23:52 39.42818 94.91969 40361 ft 434 kts 262°
2026-04-26 23:52 39.41892 94.84262 40373 ft 433 kts 262°
2026-04-26 23:53 39.40959 94.76565 40371 ft 433 kts 262°
2026-04-26 23:53 39.40021 94.68862 40371 ft 434 kts 262°
2026-04-26 23:54 39.39082 94.61187 40351 ft 434 kts 262°
2026-04-26 23:54 39.38135 94.53482 40345 ft 434 kts 262°
2026-04-26 23:55 39.37175 94.45729 40349 ft 434 kts 262°
2026-04-26 23:55 39.36214 94.38015 40352 ft 435 kts 262°
2026-04-26 23:56 39.35255 94.30344 40351 ft 436 kts 261°
2026-04-26 23:56 39.34282 94.22599 40343 ft 437 kts 261°
2026-04-26 23:57 39.33298 94.14839 40350 ft 437 kts 261°
2026-04-26 23:57 39.32313 94.07102 40339 ft 437 kts 261°
2026-04-26 23:58 39.31324 93.99370 40358 ft 437 kts 261°
2026-04-26 23:58 39.30328 93.91628 40354 ft 437 kts 261°
2026-04-26 23:59 39.29329 93.83902 40346 ft 437 kts 261°
2026-04-26 23:59 39.28324 93.76169 40362 ft 437 kts 261°
2026-04-27 00:00 39.27310 93.68415 40354 ft 438 kts 261°
2026-04-27 00:00 39.26292 93.60669 40365 ft 438 kts 261°
2026-04-27 00:01 39.25267 93.52911 40368 ft 439 kts 261°
2026-04-27 00:01 39.24234 93.45133 40367 ft 439 kts 261°
2026-04-27 00:02 39.23203 93.37416 40373 ft 440 kts 261°
2026-04-27 00:02 39.22159 93.29640 40371 ft 440 kts 261°
2026-04-27 00:03 39.21109 93.21853 40383 ft 441 kts 261°
2026-04-27 00:03 39.20231 93.15387 40378 ft 441 kts 261°
2026-04-27 00:04 39.19168 93.07587 40371 ft 442 kts 261°
2026-04-27 00:04 39.18099 92.99777 40358 ft 442 kts 261°
2026-04-27 00:05 39.17026 92.91980 40356 ft 441 kts 261°
2026-04-27 00:05 39.15949 92.84193 40356 ft 441 kts 261°
2026-04-27 00:06 39.14865 92.76407 40357 ft 441 kts 261°
2026-04-27 00:06 39.13778 92.68625 40350 ft 442 kts 261°
2026-04-27 00:07 39.12692 92.60892 40352 ft 442 kts 261°
2026-04-27 00:07 39.11592 92.53104 40346 ft 442 kts 261°
2026-04-27 00:08 39.10486 92.45307 40347 ft 442 kts 261°
2026-04-27 00:08 39.09376 92.37512 40341 ft 442 kts 261°
2026-04-27 00:09 39.08260 92.29724 40361 ft 443 kts 260°
2026-04-27 00:09 39.07115 92.21920 40347 ft 443 kts 260°
2026-04-27 00:10 39.05953 92.14123 40335 ft 443 kts 260°
2026-04-27 00:10 39.04789 92.06334 40360 ft 444 kts 260°
2026-04-27 00:11 39.03629 91.98588 40357 ft 444 kts 260°
2026-04-27 00:11 39.02458 91.90796 40346 ft 444 kts 260°
2026-04-27 00:12 39.01281 91.83007 40356 ft 444 kts 260°
2026-04-27 00:12 39.00099 91.75220 40365 ft 444 kts 260°
2026-04-27 00:13 38.98911 91.67433 40361 ft 444 kts 260°
2026-04-27 00:13 38.97718 91.59643 40364 ft 444 kts 260°
2026-04-27 00:14 38.96520 91.51859 40371 ft 444 kts 260°
2026-04-27 00:14 38.95315 91.44073 40364 ft 444 kts 260°
2026-04-27 00:15 38.94106 91.36291 40369 ft 444 kts 260°
2026-04-27 00:15 38.92893 91.28520 40367 ft 444 kts 259°
2026-04-27 00:16 38.91673 91.20739 40371 ft 444 kts 259°
2026-04-27 00:16 38.90450 91.12970 40373 ft 445 kts 259°
2026-04-27 00:17 38.89215 91.05163 40378 ft 445 kts 259°
2026-04-27 00:17 38.87987 90.97430 40379 ft 445 kts 259°
2026-04-27 00:18 38.86843 90.89622 40379 ft 445 kts 262°
2026-04-27 00:18 38.85903 90.81764 40393 ft 445 kts 262°
2026-04-27 00:19 38.84957 90.73906 40389 ft 446 kts 262°
2026-04-27 00:19 38.83975 90.66049 40393 ft 446 kts 262°
2026-04-27 00:20 38.82977 90.58194 40396 ft 446 kts 262°
2026-04-27 00:20 38.81975 90.50344 40393 ft 446 kts 262°
2026-04-27 00:21 38.80968 90.42489 40396 ft 446 kts 262°
2026-04-27 00:21 38.79957 90.34644 40392 ft 446 kts 262°
2026-04-27 00:22 38.78937 90.26797 40390 ft 446 kts 262°
2026-04-27 00:22 38.77911 90.18966 40390 ft 446 kts 262°
2026-04-27 00:23 38.76880 90.11132 40382 ft 446 kts 262°
2026-04-27 00:23 38.75851 90.03345 40389 ft 446 kts 262°
2026-04-27 00:24 38.74812 89.95521 40387 ft 445 kts 262°
2026-04-27 00:24 38.73767 89.87698 40380 ft 446 kts 262°
2026-04-27 00:25 38.72718 89.79883 40384 ft 446 kts 262°
2026-04-27 00:25 38.71662 89.72057 40382 ft 446 kts 262°
2026-04-27 00:26 38.70601 89.64236 40378 ft 446 kts 262°
2026-04-27 00:26 38.69534 89.56413 40374 ft 446 kts 262°
2026-04-27 00:27 38.68460 89.48573 40372 ft 447 kts 261°
2026-04-27 00:27 38.67388 89.40796 40377 ft 447 kts 261°
2026-04-27 00:28 38.66303 89.32960 40378 ft 447 kts 261°
2026-04-27 00:28 38.65212 89.25119 40373 ft 447 kts 261°
2026-04-27 00:29 38.64114 89.17275 40376 ft 448 kts 261°
2026-04-27 00:29 38.63012 89.09439 40374 ft 447 kts 261°
2026-04-27 00:30 38.61907 89.01614 40373 ft 448 kts 261°
2026-04-27 00:30 38.60792 88.93766 40362 ft 449 kts 261°
2026-04-27 00:31 38.59671 88.85911 40368 ft 449 kts 261°
2026-04-27 00:31 38.58546 88.78061 40364 ft 449 kts 261°
2026-04-27 00:32 38.57435 88.70218 40356 ft 448 kts 263°
2026-04-27 00:32 38.56638 88.62380 40353 ft 447 kts 264°
2026-04-27 00:33 38.55904 88.54482 40346 ft 448 kts 264°
2026-04-27 00:33 38.55158 88.46583 40345 ft 448 kts 264°
2026-04-27 00:34 38.54393 88.38684 40337 ft 448 kts 264°
2026-04-27 00:34 38.53616 88.30788 40326 ft 449 kts 264°
2026-04-27 00:35 38.52831 88.22881 40317 ft 449 kts 264°
2026-04-27 00:35 38.52040 88.14961 40312 ft 450 kts 264°
2026-04-27 00:36 38.51244 88.07038 40296 ft 450 kts 264°
2026-04-27 00:36 38.50442 87.99112 40284 ft 451 kts 264°
2026-04-27 00:37 38.49631 87.91163 40276 ft 451 kts 264°
2026-04-27 00:37 38.48816 87.83211 40266 ft 451 kts 264°
2026-04-27 00:38 38.48000 87.75324 40253 ft 451 kts 264°
2026-04-27 00:38 38.47175 87.67387 40251 ft 451 kts 264°
2026-04-27 00:39 38.46345 87.59460 40239 ft 451 kts 264°
2026-04-27 00:39 38.45510 87.51533 40230 ft 451 kts 264°
2026-04-27 00:40 38.44668 87.43606 40233 ft 451 kts 264°
2026-04-27 00:40 38.43819 87.35652 40228 ft 452 kts 264°
2026-04-27 00:41 38.42966 87.27716 40223 ft 452 kts 264°
2026-04-27 00:41 38.42106 87.19769 40219 ft 453 kts 264°
2026-04-27 00:42 38.41240 87.11816 40221 ft 453 kts 264°
2026-04-27 00:42 38.40368 87.03860 40214 ft 454 kts 264°
2026-04-27 00:43 38.39492 86.95920 40212 ft 454 kts 264°
2026-04-27 00:43 38.38607 86.87940 40212 ft 455 kts 264°
2026-04-27 00:44 38.37714 86.79953 40207 ft 455 kts 264°
2026-04-27 00:44 38.36817 86.71969 40206 ft 456 kts 264°
2026-04-27 00:45 38.35912 86.63973 40203 ft 456 kts 264°
2026-04-27 00:45 38.35003 86.55984 40197 ft 456 kts 264°
2026-04-27 00:46 38.34086 86.47984 40198 ft 456 kts 264°
2026-04-27 00:46 38.33166 86.39997 40197 ft 456 kts 264°
2026-04-27 00:47 38.32239 86.32007 40192 ft 456 kts 264°
2026-04-27 00:47 38.31309 86.24030 40197 ft 456 kts 264°
2026-04-27 00:48 38.30379 86.16104 40197 ft 456 kts 264°
2026-04-27 00:48 38.29436 86.08125 40192 ft 456 kts 264°
2026-04-27 00:49 38.28489 86.00150 40185 ft 456 kts 264°
2026-04-27 00:49 38.27537 85.92177 40188 ft 456 kts 264°
2026-04-27 00:50 38.26098 85.80228 40190 ft 456 kts 264°
2026-04-27 00:51 38.25132 85.72253 40187 ft 456 kts 264°
2026-04-27 00:51 38.24326 85.65640 40187 ft 455 kts 264°
2026-04-27 00:52 38.23351 85.57676 40189 ft 455 kts 264°
2026-04-27 00:52 38.22371 85.49721 40185 ft 455 kts 264°
2026-04-27 00:53 38.20845 85.41880 40180 ft 459 kts 254°
2026-04-27 00:53 38.18364 85.34382 40188 ft 461 kts 249°
2026-04-27 00:54 38.15743 85.26948 40176 ft 461 kts 249°
2026-04-27 00:54 38.13147 85.19507 40177 ft 461 kts 250°
2026-04-27 00:55 38.10564 85.12051 40175 ft 461 kts 250°
2026-04-27 00:55 38.07980 85.04603 40171 ft 461 kts 250°
2026-04-27 00:56 38.05408 84.97209 40172 ft 460 kts 250°
2026-04-27 00:56 38.02819 84.89786 40171 ft 460 kts 250°
2026-04-27 00:57 38.00797 84.82153 40172 ft 455 kts 261°
2026-04-27 00:57 37.99460 84.74317 40169 ft 454 kts 261°
2026-04-27 00:58 37.98135 84.66487 40169 ft 455 kts 261°
2026-04-27 00:58 37.96780 84.58656 40167 ft 455 kts 261°
2026-04-27 00:59 37.95406 84.50824 40165 ft 455 kts 261°
2026-04-27 00:59 37.94026 84.43014 40163 ft 454 kts 260°
2026-04-27 01:00 37.92640 84.35199 40158 ft 454 kts 260°
2026-04-27 01:00 37.91252 84.27399 40158 ft 454 kts 260°
2026-04-27 01:01 37.89859 84.19601 40157 ft 454 kts 260°
2026-04-27 01:01 37.88461 84.11809 40156 ft 453 kts 260°
2026-04-27 01:02 37.87061 84.04036 40151 ft 453 kts 260°
2026-04-27 01:02 37.85665 83.96314 40145 ft 452 kts 260°
2026-04-27 01:03 37.84257 83.88561 40150 ft 452 kts 260°
2026-04-27 01:03 37.82846 83.80820 40151 ft 451 kts 260°
2026-04-27 01:04 37.81431 83.73085 40146 ft 451 kts 260°
2026-04-27 01:04 37.80012 83.65362 40144 ft 450 kts 260°
2026-04-27 01:05 37.78590 83.57653 40146 ft 450 kts 260°
2026-04-27 01:05 37.77165 83.49954 40142 ft 449 kts 260°
2026-04-27 01:06 37.75739 83.42275 40140 ft 449 kts 260°
2026-04-27 01:06 37.74306 83.34593 40134 ft 449 kts 260°
2026-04-27 01:07 37.72869 83.26921 40137 ft 448 kts 260°
2026-04-27 01:07 37.71440 83.19306 40134 ft 448 kts 260°
2026-04-27 01:08 37.69989 83.11605 40135 ft 448 kts 260°
2026-04-27 01:08 37.68542 83.03947 40133 ft 448 kts 259°
2026-04-27 01:09 37.67101 82.96353 40132 ft 448 kts 259°
2026-04-27 01:09 37.65642 82.88692 40129 ft 449 kts 259°
2026-04-27 01:10 37.64178 82.81035 40131 ft 449 kts 259°
2026-04-27 01:10 37.62707 82.73372 40129 ft 449 kts 259°
2026-04-27 01:11 37.61231 82.65713 40132 ft 450 kts 259°
2026-04-27 01:11 37.59748 82.58046 40126 ft 450 kts 259°
2026-04-27 01:12 37.58260 82.50379 40124 ft 450 kts 259°
2026-04-27 01:12 37.56768 82.42719 40125 ft 450 kts 259°
2026-04-27 01:13 37.55270 82.35063 40120 ft 450 kts 259°
2026-04-27 01:13 37.53777 82.27454 40120 ft 450 kts 259°
2026-04-27 01:14 37.52270 82.19803 40116 ft 450 kts 259°
2026-04-27 01:14 37.50756 82.12148 40119 ft 450 kts 259°
2026-04-27 01:15 37.49239 82.04502 40115 ft 450 kts 258°
2026-04-27 01:15 37.47719 81.96870 40114 ft 450 kts 258°
2026-04-27 01:16 37.46192 81.89233 40121 ft 449 kts 258°
2026-04-27 01:16 37.44663 81.81613 40125 ft 449 kts 258°
2026-04-27 01:17 37.43138 81.74037 40106 ft 449 kts 258°
2026-04-27 01:17 37.41598 81.66416 40113 ft 449 kts 258°
2026-04-27 01:18 37.40057 81.58816 40111 ft 449 kts 258°
2026-04-27 01:18 37.38510 81.51213 40113 ft 448 kts 258°
2026-04-27 01:19 37.36958 81.43617 40115 ft 448 kts 258°
2026-04-27 01:19 37.35403 81.36030 40115 ft 448 kts 258°
2026-04-27 01:20 37.33844 81.28452 40112 ft 448 kts 258°
2026-04-27 01:20 37.32280 81.20873 40113 ft 448 kts 258°
2026-04-27 01:21 37.30712 81.13304 40111 ft 448 kts 258°
2026-04-27 01:21 37.29140 81.05739 40114 ft 448 kts 258°
2026-04-27 01:22 37.27574 80.98232 40100 ft 448 kts 258°
2026-04-27 01:22 37.25993 80.90676 40104 ft 448 kts 258°
2026-04-27 01:23 37.24404 80.83113 40104 ft 447 kts 257°
2026-04-27 01:23 37.22813 80.75560 40100 ft 447 kts 257°
2026-04-27 01:24 37.21216 80.68007 40097 ft 447 kts 257°
2026-04-27 01:24 37.19614 80.60461 40103 ft 447 kts 257°
2026-04-27 01:25 37.18010 80.52926 40101 ft 447 kts 257°
2026-04-27 01:25 37.16400 80.45391 40107 ft 447 kts 257°
2026-04-27 01:26 37.14788 80.37869 40097 ft 447 kts 257°
2026-04-27 01:26 37.13171 80.30350 40108 ft 447 kts 257°
2026-04-27 01:27 37.11560 80.22885 40107 ft 447 kts 257°
2026-04-27 01:27 37.09933 80.15371 40110 ft 447 kts 257°
2026-04-27 01:28 37.08303 80.07863 40111 ft 446 kts 257°
2026-04-27 01:28 37.06668 80.00358 40114 ft 446 kts 257°
2026-04-27 01:29 37.05029 79.92862 40116 ft 446 kts 257°
2026-04-27 01:29 37.03828 79.85266 40130 ft 444 kts 265°
2026-04-27 01:30 37.03597 79.77579 40126 ft 442 kts 271°
2026-04-27 01:30 37.03601 79.69867 40134 ft 443 kts 271°
2026-04-27 01:31 37.03595 79.62161 40125 ft 443 kts 271°
2026-04-27 01:31 37.03567 79.54439 40132 ft 444 kts 271°
2026-04-27 01:32 37.03526 79.46721 40136 ft 444 kts 270°
2026-04-27 01:32 37.03476 79.38990 40130 ft 444 kts 270°
2026-04-27 01:33 37.03423 79.31309 40137 ft 444 kts 270°
2026-04-27 01:33 37.03364 79.23524 40144 ft 444 kts 270°
2026-04-27 01:34 37.03301 79.15832 40150 ft 445 kts 270°
2026-04-27 01:34 37.03232 79.08090 40158 ft 445 kts 270°
2026-04-27 01:35 37.03159 79.00352 40160 ft 445 kts 270°
2026-04-27 01:35 37.03080 78.92614 40170 ft 444 kts 270°
2026-04-27 01:36 37.02996 78.84877 40172 ft 444 kts 270°
2026-04-27 01:36 37.02909 78.77164 40178 ft 444 kts 270°
2026-04-27 01:37 37.02815 78.69429 40183 ft 444 kts 270°
2026-04-27 01:37 37.02734 78.63017 40187 ft 443 kts 270°
2026-04-27 01:38 37.02615 78.54052 40201 ft 444 kts 270°
2026-04-27 01:38 37.02524 78.47578 40207 ft 444 kts 270°
2026-04-27 01:39 37.02411 78.39863 40219 ft 443 kts 270°
2026-04-27 01:39 37.02294 78.32204 40219 ft 443 kts 270°
2026-04-27 01:40 37.02173 78.24496 40224 ft 443 kts 269°
2026-04-27 01:40 37.02046 78.16780 40241 ft 444 kts 270°
2026-04-27 01:41 37.01912 78.09058 40233 ft 444 kts 269°
2026-04-27 01:41 37.01773 78.01310 40262 ft 446 kts 269°
2026-04-27 01:42 37.01631 77.93543 40268 ft 446 kts 269°
2026-04-27 01:42 37.01483 77.85773 40261 ft 445 kts 269°
2026-04-27 01:43 37.01330 77.78033 40280 ft 445 kts 269°
2026-04-27 01:43 37.01172 77.70275 40280 ft 445 kts 269°
2026-04-27 01:44 37.01009 77.62581 40281 ft 445 kts 269°
2026-04-27 01:44 37.00841 77.54827 40286 ft 445 kts 269°
2026-04-27 01:45 37.00667 77.47081 40287 ft 445 kts 269°
2026-04-27 01:45 37.00489 77.39349 40287 ft 444 kts 269°
2026-04-27 01:46 37.00309 77.31663 40288 ft 444 kts 269°
2026-04-27 01:46 37.00121 77.23951 40267 ft 442 kts 269°
2026-04-27 01:47 36.99929 77.16289 40297 ft 441 kts 269°
2026-04-27 01:47 36.99731 77.08609 40299 ft 441 kts 269°
2026-04-27 01:48 36.99530 77.00932 40297 ft 441 kts 269°
2026-04-27 01:48 36.99324 76.93268 40295 ft 441 kts 269°
2026-04-27 01:49 36.99113 76.85594 40316 ft 442 kts 269°
2026-04-27 01:49 36.98898 76.77909 40316 ft 442 kts 269°
2026-04-27 01:50 36.98675 76.70204 40326 ft 444 kts 269°
2026-04-27 01:50 36.98447 76.62473 40329 ft 444 kts 269°
2026-04-27 01:51 36.98213 76.54759 40319 ft 443 kts 269°
2026-04-27 01:51 36.97979 76.47100 40350 ft 440 kts 269°
2026-04-27 01:52 36.97739 76.39452 40354 ft 439 kts 269°
2026-04-27 01:52 36.97495 76.31867 40364 ft 438 kts 269°
2026-04-27 01:53 36.97246 76.24248 40356 ft 438 kts 270°
2026-04-27 01:53 36.96993 76.16650 40359 ft 436 kts 270°
2026-04-27 01:54 36.96735 76.09082 40355 ft 435 kts 270°
2026-04-27 01:54 36.96473 76.01542 40365 ft 434 kts 269°
2026-04-27 01:55 36.96210 75.94030 40374 ft 432 kts 270°
2026-04-27 01:55 36.95964 75.86554 40413 ft 427 kts 270°
2026-04-27 01:56 36.95536 75.75380 40377 ft 429 kts 269°
2026-04-27 01:56 36.95252 75.67945 40417 ft 425 kts 269°
2026-04-27 01:57 36.94970 75.60491 40392 ft 431 kts 269°
2026-04-27 01:57 36.94684 75.53009 40378 ft 434 kts 269°
2026-04-27 01:58 36.94260 75.45479 40385 ft 434 kts 260°
2026-04-27 01:58 36.93287 75.41886 40365 ft 442 kts 247°
2026-04-27 01:58 36.91731 75.38544 40358 ft 449 kts 239°
2026-04-27 01:59 36.89625 75.35617 40264 ft 457 kts 226°
2026-04-27 01:59 36.87204 75.33025 40294 ft 460 kts 224°
2026-04-27 01:59 36.82253 75.27927 40257 ft 462 kts 224°
2026-04-27 02:00 36.77329 75.22814 40259 ft 460 kts 225°
2026-04-27 02:00 36.72469 75.17694 40251 ft 453 kts 225°
2026-04-27 02:01 36.67680 75.12622 40224 ft 451 kts 226°
2026-04-27 02:01 36.62905 75.07560 40235 ft 451 kts 225°
2026-04-27 02:02 36.58119 75.02494 40265 ft 452 kts 225°
2026-04-27 02:02 36.53282 74.97388 40262 ft 458 kts 226°
2026-04-27 02:03 36.48422 74.92233 40230 ft 454 kts 226°
2026-04-27 02:03 36.43619 74.87206 40241 ft 453 kts 225°
2026-04-27 02:04 36.38809 74.82187 40235 ft 449 kts 226°
2026-04-27 02:04 36.34073 74.77228 40192 ft 447 kts 226°
2026-04-27 02:05 36.29281 74.72207 40212 ft 454 kts 226°
2026-04-27 02:05 36.24421 74.67133 40215 ft 460 kts 226°
2026-04-27 02:06 36.19593 74.62112 40193 ft 450 kts 226°
2026-04-27 02:06 36.14813 74.57139 40155 ft 447 kts 226°
2026-04-27 02:07 36.10074 74.52212 40173 ft 444 kts 225°
2026-04-27 02:07 36.05327 74.47287 40163 ft 445 kts 226°
2026-04-27 02:08 36.00568 74.42356 40149 ft 447 kts 226°
2026-04-27 02:08 35.95812 74.37437 40135 ft 447 kts 226°
2026-04-27 02:09 35.91036 74.32521 40140 ft 447 kts 225°
2026-04-27 02:09 35.86123 74.27780 40134 ft 450 kts 223°
2026-04-27 02:10 35.81130 74.23084 40112 ft 452 kts 223°
2026-04-27 02:10 35.76184 74.18418 40114 ft 450 kts 223°
2026-04-27 02:11 35.71199 74.13679 40104 ft 450 kts 223°
2026-04-27 02:11 35.66285 74.09012 40091 ft 449 kts 223°
2026-04-27 02:12 35.61343 74.04326 40085 ft 448 kts 223°
2026-04-27 02:12 35.56417 73.99662 40070 ft 446 kts 223°
2026-04-27 02:13 35.51514 73.95032 40082 ft 444 kts 223°
2026-04-27 02:13 35.46591 73.90385 40080 ft 448 kts 223°
2026-04-27 02:14 35.41640 73.85718 40061 ft 451 kts 223°
2026-04-27 02:14 35.36651 73.81027 40090 ft 453 kts 223°
2026-04-27 02:15 35.31644 73.76327 40089 ft 453 kts 223°
2026-04-27 02:15 35.26646 73.71643 40098 ft 452 kts 223°
2026-04-27 02:16 35.21661 73.66979 40098 ft 450 kts 223°
2026-04-27 02:16 35.16697 73.62335 40105 ft 449 kts 223°
2026-04-27 02:17 35.11733 73.57706 40113 ft 449 kts 223°
2026-04-27 02:17 35.06766 73.53083 40090 ft 449 kts 223°
2026-04-27 02:18 35.01793 73.48456 39687 ft 452 kts 223°
2026-04-27 02:18 34.99289 73.46126 38998 ft 453 kts 223°
2026-04-27 02:18 34.96786 73.43803 38206 ft 450 kts 223°
2026-04-27 02:19 34.94293 73.41492 37339 ft 449 kts 222°
2026-04-27 02:19 34.91817 73.39197 36512 ft 449 kts 222°
2026-04-27 02:19 34.89326 73.36889 35667 ft 449 kts 222°
2026-04-27 02:19 34.86833 73.34581 34658 ft 453 kts 221°
2026-04-27 02:20 34.84346 73.32279 33638 ft 456 kts 221°
2026-04-27 02:20 34.81806 73.29930 32496 ft 459 kts 221°
2026-04-27 02:20 34.79255 73.27574 31351 ft 463 kts 220°
2026-04-27 02:20 34.76677 73.25197 30322 ft 465 kts 220°
2026-04-27 02:21 34.74106 73.22830 29383 ft 463 kts 220°
2026-04-27 02:21 34.71550 73.20479 28477 ft 459 kts 220°
2026-04-27 02:21 34.69017 73.18148 27651 ft 453 kts 220°
2026-04-27 02:21 34.66519 73.15849 26844 ft 449 kts 219°
2026-04-27 02:22 34.64036 73.13567 26055 ft 445 kts 219°
2026-04-27 02:22 34.61557 73.11341 25241 ft 440 kts 216°
2026-04-27 02:22 34.58829 73.09666 24467 ft 442 kts 202°
2026-04-27 02:22 34.55850 73.08679 23706 ft 444 kts 193°
2026-04-27 02:23 34.52772 73.08364 22842 ft 444 kts 181°
2026-04-27 02:23 34.49700 73.08510 22053 ft 440 kts 180°
2026-04-27 02:23 34.46658 73.08695 21309 ft 436 kts 179°
2026-04-27 02:23 34.43639 73.08877 20586 ft 432 kts 179°
2026-04-27 02:24 34.41655 73.08992 20121 ft 429 kts 179°
2026-04-27 02:24 34.38685 73.09153 19437 ft 425 kts 179°
2026-04-27 02:24 34.35733 73.09300 18738 ft 423 kts 179°
2026-04-27 02:24 34.32808 73.09435 18045 ft 420 kts 179°
2026-04-27 02:25 34.29891 73.09565 17270 ft 417 kts 179°
2026-04-27 02:25 34.27009 73.09691 16566 ft 413 kts 179°
2026-04-27 02:25 34.24151 73.09816 15885 ft 409 kts 179°
2026-04-27 02:25 34.21316 73.09940 15238 ft 405 kts 178°
2026-04-27 02:26 34.18517 73.10063 14590 ft 402 kts 178°
2026-04-27 02:26 34.15731 73.10184 13943 ft 399 kts 178°
2026-04-27 02:26 34.12967 73.10305 13260 ft 397 kts 178°
2026-04-27 02:26 34.10213 73.10427 12581 ft 393 kts 178°
2026-04-27 02:27 34.07498 73.10547 11953 ft 389 kts 178°
2026-04-27 02:27 34.04808 73.10666 11394 ft 379 kts 178°
2026-04-27 02:27 34.02304 73.10777 10950 ft 340 kts 178°
2026-04-27 02:27 34.00066 73.10876 10704 ft 305 kts 178°
2026-04-27 02:28 33.98047 73.10962 10276 ft 285 kts 178°
2026-04-27 02:28 33.96104 73.11044 9603 ft 276 kts 178°
2026-04-27 02:28 33.94187 73.11128 8719 ft 275 kts 178°
2026-04-27 02:28 33.92277 73.11213 7908 ft 273 kts 178°
2026-04-27 02:29 33.90386 73.11296 7137 ft 273 kts 178°
2026-04-27 02:29 33.88474 73.11380 6948 ft 269 kts 178°
2026-04-27 02:29 33.86641 73.11460 7100 ft 262 kts 178°
2026-04-27 02:29 33.84786 73.11540 7356 ft 271 kts 178°
2026-04-27 02:30 33.82879 73.11622 7600 ft 276 kts 178°
2026-04-27 02:30 33.80957 73.11706 7812 ft 275 kts 178°
2026-04-27 02:30 33.79049 73.11790 8074 ft 276 kts 178°
2026-04-27 02:30 33.77122 73.11875 8304 ft 277 kts 179°
2026-04-27 02:31 33.75177 73.11960 8174 ft 286 kts 178°
2026-04-27 02:31 33.73156 73.12047 7786 ft 292 kts 178°
2026-04-27 02:31 33.71133 73.12134 7464 ft 291 kts 178°
2026-04-27 02:31 33.69103 73.12223 7128 ft 290 kts 178°
2026-04-27 02:32 33.67093 73.12312 6819 ft 288 kts 178°
2026-04-27 02:32 33.65161 73.12395 6486 ft 266 kts 178°
2026-04-27 02:32 33.63375 73.12472 6212 ft 252 kts 178°
2026-04-27 02:32 33.61613 73.12539 5944 ft 254 kts 182°
2026-04-27 02:33 33.59907 73.11982 5669 ft 263 kts 212°
2026-04-27 02:33 33.58425 73.10666 5435 ft 267 kts 218°
2026-04-27 02:33 33.56992 73.09337 5289 ft 260 kts 218°
2026-04-27 02:33 33.55574 73.08038 5167 ft 252 kts 218°
2026-04-27 02:34 33.54198 73.06783 5043 ft 244 kts 218°
2026-04-27 02:34 33.52869 73.05573 4935 ft 235 kts 218°
2026-04-27 02:34 33.51843 73.04168 4806 ft 219 kts 249°
2026-04-27 02:34 33.51670 73.02431 4649 ft 209 kts 277°
2026-04-27 02:35 33.51905 73.00722 4442 ft 206 kts 282°
2026-04-27 02:35 33.52206 72.99048 4183 ft 205 kts 283°
2026-04-27 02:35 33.52489 72.97379 3930 ft 204 kts 282°
2026-04-27 02:35 33.52748 72.95737 3584 ft 197 kts 282°
2026-04-27 02:36 33.52985 72.94219 3449 ft 173 kts 282°
2026-04-27 02:36 33.53201 72.92847 3143 ft 165 kts 282°
2026-04-27 02:36 33.53410 72.91518 2861 ft 153 kts 283°
2026-04-27 02:36 33.53597 72.90321 2689 ft 139 kts 283°
2026-04-27 02:37 33.53773 72.89195 2544 ft 136 kts 282°
2026-04-27 02:37 33.53927 72.88207 2397 ft 136 kts 282°
2026-04-27 02:37 33.54058 72.87374 2258 ft 136 kts 281°
2026-04-27 02:38 33.54231 72.86261 2082 ft 136 kts 281°
2026-04-27 02:38 33.54411 72.85152 1926 ft 135 kts 281°
2026-04-27 02:38 33.54579 72.84034 1797 ft 135 kts 280°
2026-04-27 02:38 33.54726 72.83055 1770 ft 98 kts 283°
2026-04-27 02:39 33.54821 72.82474 1765 ft 46 kts 283°
2026-04-27 02:39 33.54873 72.82136 1765 ft 39 kts 281°
2026-04-27 02:39 33.54932 72.81845 1766 ft 32 kts 292°
2026-04-27 02:39 33.55022 72.81673 1769 ft 21 kts 309°
2026-04-27 02:40 33.55077 72.81595 1767 ft 4 kts 314°
2026-04-27 02:40 33.55081 72.81589 1767 ft 1 kts 308°
2026-04-27 02:40 33.55109 72.81574 1766 ft 11 kts 354°
2026-04-27 02:41 33.55201 72.81602 1767 ft 14 kts 12°
2026-04-27 02:41 33.55297 72.81627 1773 ft 14 kts 23°
2026-04-27 02:41 33.55326 72.81719 1772 ft 13 kts 98°
2026-04-27 02:41 33.55311 72.81823 1775 ft 13 kts 101°
2026-04-27 02:42 33.55294 72.81926 1776 ft 13 kts 100°
2026-04-27 02:42 33.55279 72.82029 1775 ft 13 kts 100°
2026-04-27 02:42 33.55264 72.82133 1774 ft 13 kts 100°
2026-04-27 02:42 33.55249 72.82237 1775 ft 13 kts 99°
2026-04-27 02:43 33.55233 72.82340 1774 ft 13 kts 101°
2026-04-27 02:43 33.55216 72.82443 1775 ft 13 kts 101°
2026-04-27 02:43 33.55200 72.82545 1775 ft 13 kts 101°
2026-04-27 02:43 33.55181 72.82671 1776 ft 22 kts 100°
2026-04-27 02:44 33.55152 72.82863 1777 ft 15 kts 101°
2026-04-27 02:44 33.55180 72.82982 1776 ft 15 kts 56°
2026-04-27 02:44 33.55238 72.83088 1776 ft 15 kts 56°
2026-04-27 02:44 33.55280 72.83159 1777 ft 6 kts 52°
2026-04-27 02:45 33.55309 72.83160 1776 ft 4 kts 339°
2026-04-27 02:45 33.55337 72.83141 1774 ft 5 kts 329°
2026-04-27 02:45 33.55364 72.83120 1777 ft 4 kts 326°
2026-04-27 02:45 33.55372 72.83113 1778 ft 0 kts 326°
2026-04-27 02:46 33.55371 72.83114 1778 ft 0 kts 326°